sat.trackr.live / text

‹ back to catalog

STARLINK-11237 [DTC]

NORAD 60934 · 2024-155L

PAYLOAD ACTIVE UNKNOWN

§ Identity

Operator
Country
US
Launch date
2024-08-31
Launch site
AFWTR
Launch vehicle
Mass (kg)
RCS (m²)

Purposes: comms

External: N2YO · Heavens-Above · Gunter

§ Orbital elements

Epoch: 2026-05-25T04:48:46.380384Z

Period
91.74 min
Inclination
53.1574°
Eccentricity
0.0001286
Mean motion
15.69706935 rev/d
Perigee alt
358.9 km
Apogee alt
360.6 km
Semi-major
6,737.9 km
B*
2.5692e-5
RAAN
323.7586°
Arg perigee
88.0217°
Mean anomaly
272.0948°
Rev number
10,043

§ Raw data

STARLINK-11237 [DTC]1 60934U 24155L   26145.20053681  .00002524  00000+0  25692-4 0  99922 60934  53.1574 323.7586 0001286  88.0217 272.0948 15.69706935100437

JSON: /api/v1/satellites/60934 · /tle

For live sub-satellite position, see the globe view (requires WebGL).

§ Visibility from observer

Set your observer location to see the next 7 days of passes ≥ 10°. The values pass through the URL so the page stays shareable.

No JS? Fill the form by hand. The geolocation button needs JavaScript.